Location: Unspecified
(0.0000°N, 0.0000°E)
Time: 13:27:17
(UTC+00:00)

Vanguard 3 - Pass Details

Date: 13 December 2025
Orbit: 507 x 3207 km, 33.3° (Epoch: 22 January)

Event Time Altitude Azimuth Distance (km) Brightness Sun altitude
Rises 00:49:28 0° 239° (WSW) 4,320 - -63.2°
Reaches altitude 10° 00:54:28 10° 213° (SSW) 3,921 - -62.6°
Exits shadow 00:57:22 13° 196° (SSW) 4,001 10.8 -62.2°
Maximum altitude 00:59:04 13° 187° (S) 4,140 10.9 -62.0°
Drops below altitude 10° 01:04:39 10° 162° (SSE) 4,940 11.4 -61.2°
Sets 01:13:10 0° 139° (SE) 6,592 12.2 -59.9°
